Regional Weather Roundup
Issued by NWS Wakefield, VA

Home | Current Version | Previous Version | Text Only | Print | Product List | Glossary Off
Versions: 1 2 3 4 5 6 7 8 9 10 11 12 13 14 15 16 17 18 19 20 21 22 23 24 25 26 27 28 29 30 31 32 33 34 35 36 37 38 39 40 41 42 43 44 45 46 47 48 49 50

000
ASUS41 KAKQ 231415
RWRAKQ

REGIONAL WEATHER ROUNDUP
NATIONAL WEATHER SERVICE WAKEFIELD VA
1000 AM EDT SAT JUL 23 2016

Note: "fair" indicates few or no clouds below 12,000 feet with no
significant weather and/or obstructions to visibility. * = Denotes
station may not report precipitation (e.g., rain,snow,etc.),
thunder or fog.

VAZ042-051-052>054-056-231500-
NORTHERN VIRGINIA

CITY           SKY/WX    TMP DP  RH WIND       PRES   REMARKS
WASH NATIONAL  FAIR      90  71  53 NW9       29.95F HX  96
DULLES         FAIR      88  68  51 NW14      29.97F
FORT BELVOIR   FAIR      89  69  51 NW7       29.95F
QUANTICO       FAIR      89  71  55 N9        29.96F HX  95
FREDERICKSBRG* FAIR      89  70  53 NW6       29.96S
STAFFORD*      FAIR      88  67  50 N7        30.01S
WARRENTON      FAIR      89  64  42 NW9       29.97F
CULPEPER*      FAIR      87  73  63 N3        29.99S HX  95
MANASSAS*      NOT AVBL
LEESBURG*      FAIR      88  73  62 W7G16     29.99S HX  96
WINCHESTER     FAIR      86  68  54 SW7       30.00S
FRONT ROYAL*   FAIR      82  72  69 S5        30.00F
LURAY*         FAIR      81  73  78 CALM      30.02F
$$

VAZ048-049-060>072-079>083-231500-
CENTRAL AND SOUTH CENTRAL VIRGINIA

CITY           SKY/WX    TMP DP  RH WIND       PRES   REMARKS
RICHMOND       FAIR      87  73  62 CALM      29.97R
CHESTERFIELD*  FAIR      88  64  45 CALM      29.99R
PETERSBURG*    FAIR      86  74  67 CALM      29.98S
HANOVER        FAIR      88  73  61 NE3       29.99R HX  95
TAPPAHANNOCK*  FAIR      90  69  50 N5        29.97S
QUINTON*       FAIR      85  76  76 CALM      29.96S
CHARLOTTSVILLE FAIR      90  71  53 VRB3      30.00S HX  96
GORDONSVILLE*  FAIR      86  70  59 CALM      29.99R
ORANGE*          N/A     86  70  58 CALM      30.01S
LOUISA*        FAIR      90  75  62 CALM      29.98S HX 100
BUMPASS*       FAIR      85  72  65 N5        29.99R
FARMVILLE*     FAIR      87  72  60 NE3       29.98S
CREWE*         FAIR      85  74  70 CALM      29.98S
FORT PICKETT*  FAIR      85  74  71 N6        29.99S
CHASE CITY*    FAIR      83  75  77 CALM      30.00R
CLARKSVILLE*   FAIR      82  73  74 CALM      29.99S
SOUTH HILL*    FAIR      83  74  72 CALM      30.04S
LAWRENCEVILLE* FAIR      84  75  75 CALM      29.98F
EMPORIA*       FAIR      82  72  69 CALM      29.99S
$$

VAZ088>098-231500-
SOUTHEAST VIRGINIA

CITY           SKY/WX    TMP DP  RH WIND       PRES   REMARKS
NORFOLK        FAIR      86  72  62 VRB6      29.97S
VIRGINIA BEACH FAIR      89  72  56 W5        29.96S HX  96
NORFOLK NAVAL  FAIR      85  73  67 W6        29.98F
WEST POINT*    FAIR      85  75  73 CALM      29.97S
SALUDA*        FAIR      85  76  75 CALM      29.95F
NEWPORT NEWS   FAIR      84  75  74 SW6       29.97S
LANGLEY AFB    SUNNY     84  76  76 S5        29.97S
FORT EUSTIS    FAIR      86  76  73 W2        29.96S HX  95
WILLIAMSBURG*  FAIR      86  75  70 CALM      29.98S HX  95
HR EXEC AP*    FAIR      84  73  70 W5        29.99S
FRANKLIN*      FAIR      83  73  71 CALM      29.98S
US460-WAKEFLD  FAIR      83  74  74 CALM      29.97F
$$

VAZ020-022-025-037-045-231500-
WEST CENTRAL AND SOUTHWEST VIRGINIA

CITY           SKY/WX    TMP DP  RH WIND       PRES   REMARKS
STAUNTON*      FAIR      79  68  70 CALM      30.07S
WAYNESBORO*    FAIR      81  67  63 CALM      30.06F
HOT SPRINGS VA NOT AVBL
LYNCHBURG      FAIR      85  69  58 NE7       30.03R
DANVILLE       FAIR      84  71  65 NW6       30.00S
SOUTH BOSTON*  FAIR      84  73  70 CALM      29.99S
MARTINSVILLE   FAIR      84  69  62 CALM      30.05S
ROANOKE        FAIR      85  68  56 VRB3      30.07R
BLACKSBURG     FAIR      78  70  76 CALM      30.14S
DUBLIN*        FAIR      80  68  65 CALM      30.12S
MARION*        FAIR      81  65  57 CALM      30.16S
HILLSVILLE*    FAIR      77  66  69 N6        30.13F
RICHLANDS*     FAIR      77  70  80 CALM      30.15S
WISE*          FAIR      81  57  44 E3        30.16S
ABINGDON*      FAIR      82  68  63 CALM      30.12S
$$

MDZ021>025-VAZ099-100-231500-
SOUTHERN MARYLAND AND THE DELMARVA PENINSULA

CITY           SKY/WX    TMP DP  RH WIND       PRES   REMARKS
PATUXENT RIVER SUNNY     89  71  55 NW5       29.94S HX  95
BAY BRIDGE APT SUNNY     88  75  66 W6        29.93F HX  97
LEONARDTOWN    SUNNY     88  70  55 NW6       29.96S
DOVER          SUNNY     88  76  68 W13       29.90F HX  98
GEORGETOWN     SUNNY     89  73  59 W7        29.93S HX  97
EASTON         SUNNY     90  79  70 NW3       29.97S HX 105
CAMBRIDGE      SUNNY     88  73  62 N6        29.93S HX  96
SALISBURY      SUNNY     88  74  63 NW8       29.93S HX  96
OCEAN CITY     SUNNY     89  76  65 N6        29.93S HX 100
WALLOPS ISLAND FAIR      88  77  69 W7        29.94S HX 100
ACCOMACK*      FAIR      88  75  66 CALM      29.95S HX  97
$$

NCZ012>017-030>032-231500-
NORTH CENTRAL AND EASTERN NORTH CAROLINA

CITY           SKY/WX    TMP DP  RH WIND       PRES   REMARKS
ROANOKE RAPIDS FAIR      81  73  78 SW5       29.98F
RALEIGH        MOSUNNY   84  73  69 CALM      30.00S
ELIZABETH CITY SUNNY     85  75  72 SW8       29.99S
AHOSKIE*       SUNNY     81  74  78 CALM      29.98S
EDENTON*       SUNNY     84  73  69 SW6       30.00S
CURRITUCK*     SUNNY     84  73  69 SW8       29.99S
KILL DEVIL HLS SUNNY     87  71  59 SW8       29.99S
MANTEO           N/A     84  73  70 W10       30.00F
CAPE HATTERAS  SUNNY     85  76  74 SW6       30.02S
TARBORO*       FAIR      83  75  76 CALM      30.00S
GOLDSBORO      MOSUNNY   84  80  87 S9        29.98F HX  98
WASHINGTON     SUNNY     83  74  75 S5        30.00S
GREENVILLE     SUNNY     84  77  79 SW5       30.01S
NEW BERN       MOSUNNY   85  73  67 SW10      30.02S
WILMINGTON     CLOUDY    82  74  76 SW6       30.02S
$$

VAZ048-231500-
ELSEWHERE

CITY           SKY/WX    TMP DP  RH WIND       PRES   REMARKS
HARRISBURG PA  MOSUNNY   87  73  62 NW12      29.92F
BALTIMORE      SUNNY     90  71  53 W12       29.93F HX  96
ANNAPOLIS      SUNNY     88  74  63 W5        29.93S HX  96
ANDREWS AFB    FAIR      87  71  58 W8        29.95F
PHILADELPHIA   MOSUNNY   88  70  55 NW13      29.90F
GREENSBORO     MOSUNNY   87  71  58 NE3       30.02S
ROCKY MOUNT    SUNNY     83  75  77 VRB5      30.00R
$$

VAZ100-231500-
MARINE

STATION/POSITION TIME  TEMP    WIND        PRES    WAVE   SWELL
                       AIR SEA DIR/SP/G            HT/PER HT/PER
                 (UTC) (F)     (DEG/KT/KT) (MB)    (FT/S) (FT/S)
BRANDYWINE LGT   1300   81     320/  7/  9   N/A
CAPE MAY NJ      1300   83 73  320/  6/  8 1012.8S
LEWES DE         1300   80 72  340/  4/  7 1013.0F
OCEAN-CITY-INLET 1300   83 73  330/  7/  9 1013.9R
WACHAPREAGUE VA  1300   85 83  250/  5/  7 1014.2R
THOMAS POINT MD  1400   84 81  290/ 10/ 11 1015.0F
GOOSES REEF MD   1300   84 82  320/ 10/ 12 1014.9R   1/ 3
COVE POINT MD    1300   83     340/ 10/ 12 1014.5R
SOLOMONS ISLAND  1300   83 83  340/  6/ 10   N/A
BISHOPS HEAD MD  1300   84 83  290/  7/  8 1014.1F
PINEY POINT MD   1300          320/  6/  6   N/A
POTOMAC MD       1300   83 83  280/  6/  8 1013.1R   1
CAMBRIDGE MD     1300   85 85  300/  7/  9 1012.9S
LEWISETTA VA     1306   84 84  290/  4/  6 1013.9R
RAPPAHANNOCK LGT 1300          250/  7/  8 1015.1R
STINGRAY PT      1300   82 84  220/  6/  8 1014.9R   1
YORK RVR RNG VA  1300   81     260/  7/  8 1014.2R
YORKTOWN VA      1300   81 82  260/  3/  5 1014.3R
JAMESTOWN VA     1300   80 86  250/  2/  4   N/A     0
DOMINION TERM VA 1300   80     270/  6/  8 1015.0R
KIPTOPEKE VA     1300      81  270/  7/  9   N/A
CHES BAY BRIDGE  1300   80 81  230/  8/  9 1014.7R
CAPE HENRY VA    1300   81     250/  6/  8   N/A
WILLOUBY STN VA  1300   79     250/  9/ 11   N/A
CAPE HENRY BUOY  1312      76                N/A     3/ 8
1ST LANDING BUOY 1300   80 81  250/ 10/ 10 1014.6R
CAPE CHARLES BUO 1326      65                N/A     2/ 8
OFFSHORE WE BUOY 1321      80                N/A     3/ 8
64NM E OF VA BCH 1350   80 79  230/ 14/ 17 1014.7F   4/ 5   2/ 8
DUCK PIER NC     1300   81 61  230/ 12/ 13 1015.0R
44100 DUCK FRF   1305      79                N/A     2/ 8
44056 DUCK FRF   1311      67                N/A     2/ 9
OREGON INLET NC  1300   82 83  220/ 13/ 16 1015.9R
HATTERAS NC      1300   83 82  240/  8/ 10 1016.2R
DIAMOND SHLS NC  1350   84 86  230/ 10/ 10 1016.5S   2/ 8   2/ 8
CAPE LOOKOUT NC  1400   85     210/  9/ 11 1016.3R
$$



USA.gov is the U.S. government's official web portal to all federal, state and local government web resources and services.